KA1AL Weather Reports


time (UTC)temp
C
wind
direction
speed
KPH
gust
KPH
rain 1hr
cm
rain 24hr
cm
rain mn
cm
humidity
%
barometer
mb
20260505195942 22 233 17.7 37.0 0.00 0.00 0.00 59 1002.1
20260505195440 22 208 24.1 35.4 0.00 0.00 0.00 57 1001.9
20260505194937 22 231 24.1 33.8 0.00 0.00 0.00 57 1001.8
20260505194434 23 214 16.1 25.7 0.00 0.00 0.00 57 1002.0
20260505193934 23 247 19.3 22.5 0.00 0.00 0.00 56 1001.9
20260505193432 23 259 19.3 22.5 0.00 0.00 0.00 56 1002.2
20260505192930 23 271 22.5 27.4 0.00 0.00 0.00 56 1002.2
20260505192428 23 225 17.7 24.1 0.00 0.00 0.00 56 1002.2
20260505191925 23 227 22.5 33.8 0.00 0.00 0.00 56 1002.2
20260505191424 23 218 12.9 17.7 0.00 0.00 0.00 56 1002.3
20260505190920 23 208 20.9 33.8 0.00 0.00 0.00 56 1002.4
20260505190415 23 203 11.3 14.5 0.00 0.00 0.00 56 1002.5
20260505185911 23 220 12.9 17.7 0.00 0.00 0.00 56 1002.4
20260505185408 23 207 24.1 33.8 0.00 0.00 0.00 55 1002.5
20260505184904 23 227 20.9 27.4 0.00 0.00 0.00 56 1002.4
20260505184401 22 233 22.5 27.4 0.00 0.00 0.00 56 1002.6
20260505183858 22 198 16.1 22.5 0.00 0.00 0.00 56 1002.7
20260505183355 22 190 14.5 20.9 0.00 0.00 0.00 59 1002.8
20260505182851 22 238 32.2 41.8 0.00 0.00 0.00 57 1002.8
20260505182348 22 253 14.5 20.9 0.00 0.00 0.00 57 1003.0
20260505181845 23 198 20.9 24.1 0.00 0.00 0.00 56 1002.8
20260505181342 23 179 29.0 40.2 0.00 0.00 0.00 55 1002.8
20260505180839 23 226 19.3 22.5 0.00 0.00 0.00 55 1002.9
20260505180335 23 188 8.0 11.3 0.00 0.00 0.00 59 1002.8
20260505175832 23 243 29.0 38.6 0.00 0.00 0.00 56 1003.1
20260505175328 23 217 17.7 20.9 0.00 0.00 0.00 58 1003.2
20260505174825 22 222 16.1 20.9 0.00 0.00 0.00 57 1003.3
20260505174323 22 214 24.1 29.0 0.00 0.00 0.00 56 1003.5
20260505173818 22 223 9.7 16.1 0.00 0.00 0.00 58 1003.2
20260505173315 22 154 17.7 24.1 0.00 0.00 0.00 58 1003.6
20260505172813 22 208 25.7 32.2 0.00 0.00 0.00 55 1003.5
20260505172310 22 211 14.5 20.9 0.00 0.00 0.00 56 1003.7
20260505171804 22 232 8.0 12.9 0.00 0.00 0.00 57 1003.8
20260505171301 22 234 20.9 29.0 0.00 0.00 0.00 57 1004.0
20260505170757 22 252 24.1 32.2 0.00 0.00 0.00 57 1004.4
20260505170255 21 245 19.3 29.0 0.00 0.00 0.00 58 1004.1
20260505165750 21 191 14.5 16.1 0.00 0.00 0.00 58 1004.5
20260505165246 21 167 25.7 33.8 0.00 0.00 0.00 60 1004.0
20260505164741 21 198 25.7 33.8 0.00 0.00 0.00 57 1004.1
20260505164239 21 202 22.5 27.4 0.00 0.00 0.00 59 1004.5
20260505163737 21 191 17.7 24.1 0.00 0.00 0.00 59 1004.5
20260505163236 21 217 14.5 17.7 0.00 0.00 0.00 59 1004.5
20260505162732 21 239 17.7 20.9 0.00 0.00 0.00 59 1004.6
20260505162229 20 209 9.7 17.7 0.00 0.00 0.00 60 1004.6
20260505161726 20 179 8.0 11.3 0.00 0.00 0.00 61 1004.8
20260505161224 20 192 4.8 11.3 0.00 0.00 0.00 63 1004.8
20260505160721 20 199 17.7 22.5 0.00 0.00 0.00 61 1004.8
20260505160219 19 215 14.5 22.5 0.00 0.00 0.00 61 1005.1
20260505153158 18 221 14.5 20.9 0.00 0.00 0.00 63 1005.7
20260505152654 18 218 20.9 25.7 0.00 0.00 0.00 64 1005.8
20260505152151 18 231 17.7 22.5 0.00 0.00 0.00 64 1005.8
20260505151646 18 244 12.9 17.7 0.00 0.00 0.00 64 1005.8
20260505151144 18 212 16.1 17.7 0.00 0.00 0.00 64 1005.8
20260505150639 18 184 16.1 22.5 0.00 0.00 0.00 65 1005.8
20260505150137 17 197 11.3 14.5 0.00 0.00 0.00 64 1005.7
20260505140605 15 154 8.0 11.3 0.00 0.00 0.00 71 1006.2
20260505125018 12 201 11.3 14.5 0.00 0.00 0.00 77 1006.3
20260505124515 12 241 11.3 12.9 0.00 0.00 0.00 77 1006.4
20260505124012 12 197 11.3 14.5 0.00 0.00 0.00 77 1006.6
20260505123508 12 214 14.5 14.5 0.00 0.00 0.00 76 1006.4
20260505123004 12 266 6.4 11.3 0.00 0.00 0.00 77 1006.4
20260505122501 12 249 8.0 12.9 0.00 0.00 0.00 78 1006.4
20260505121958 12 244 11.3 12.9 0.00 0.00 0.00 80 1006.5
20260505121455 11 219 9.7 11.3 0.00 0.00 0.00 79 1006.8
20260505120951 11 234 8.0 11.3 0.00 0.00 0.00 81 1006.3
20260505120447 11 229 11.3 14.5 0.00 0.00 0.00 81 1006.5
20260505115946 11 219 14.5 16.1 0.00 0.00 0.00 80 1006.7
20260505115443 11 199 8.0 16.1 0.00 0.00 0.00 81 1006.4
20260505114942 11 248 6.4 8.0 0.00 0.00 0.00 82 1006.7
20260505114437 10 223 9.7 12.9 0.00 0.00 0.00 84 1006.5
20260505113934 10 199 8.0 11.3 0.00 0.00 0.00 84 1006.7
20260505113430 10 196 6.4 11.3 0.00 0.00 0.00 83 1006.4
20260505112926 10 206 8.0 11.3 0.00 0.00 0.00 84 1006.5
20260505112424 10 195 4.8 4.8 0.00 0.00 0.00 85 1006.8
20260505111920 9 212 0.0 1.6 0.00 0.00 0.00 85 1006.7
20260505111415 9 195 4.8 4.8 0.00 0.00 0.00 86 1006.7
20260505110912 8 217 1.6 3.2 0.00 0.00 0.00 86 1006.4
20260505110409 8 205 4.8 4.8 0.00 0.00 0.00 86 1006.7
20260505101839 7 196 3.2 3.2 0.00 0.00 0.00 88 1006.5
20260505101334 7 225 3.2 3.2 0.00 0.00 0.00 89 1006.6
20260505100830 7 211 3.2 4.8 0.00 0.00 0.00 89 1006.7
20260505100327 7 242 4.8 4.8 0.00 0.00 0.00 89 1006.4
20260505095822 7 217 3.2 3.2 0.00 0.00 0.00 89 1006.4
20260505095321 7 185 3.2 4.8 0.00 0.00 0.00 90 1006.4
20260505094816 7 209 1.6 3.2 0.00 0.00 0.00 90 1006.5
20260505094313 7 209 4.8 4.8 0.00 0.00 0.00 90 1006.2
20260505093809 7 196 4.8 4.8 0.00 0.00 0.00 89 1006.6
20260505093307 7 225 4.8 8.0 0.00 0.00 0.00 89 1006.4
20260505092803 7 209 3.2 4.8 0.00 0.00 0.00 90 1006.3
20260505092304 7 195 0.0 0.0 0.00 0.00 0.00 91 1006.2
20260505091759 7 190 1.6 1.6 0.00 0.00 0.00 90 1006.3
20260505091256 7 212 1.6 3.2 0.00 0.00 0.00 90 1006.3
20260505090754 7 241 4.8 4.8 0.00 0.00 0.00 91 1006.3
20260505090252 7 201 4.8 4.8 0.00 0.00 0.00 91 1006.3
20260505085749 7 217 4.8 4.8 0.00 0.00 0.00 91 1006.7
20260505085247 7 241 1.6 1.6 0.00 0.00 0.00 91 1006.3
20260505084744 7 188 3.2 3.2 0.00 0.00 0.00 91 1006.3
20260505084243 7 223 3.2 3.2 0.00 0.00 0.00 91 1006.6
20260505083739 7 203 1.6 3.2 0.00 0.00 0.00 91 1006.6
20260505083236 7 234 1.6 3.2 0.00 0.00 0.00 91 1006.6
20260505082732 7 188 1.6 1.6 0.00 0.00 0.00 91 1006.7
20260505082230 7 213 3.2 3.2 0.00 0.00 0.00 91 1006.9
20260505081725 7 193 1.6 3.2 0.00 0.00 0.00 90 1006.6
20260505081223 7 173 1.6 1.6 0.00 0.00 0.00 91 1006.6
20260505080720 7 203 1.6 3.2 0.00 0.00 0.00 90 1006.7
20260505080215 7 194 3.2 3.2 0.00 0.00 0.00 90 1006.7
20260505075711 7 263 1.6 1.6 0.00 0.00 0.00 90 1006.5
20260505075209 7 177 1.6 1.6 0.00 0.00 0.00 89 1006.5
20260505074706 7 164 1.6 1.6 0.00 0.00 0.00 89 1006.3
20260505074203 7 200 0.0 1.6 0.00 0.00 0.00 89 1006.5
20260505073700 7 183 1.6 1.6 0.00 0.00 0.00 89 1006.6
20260505073158 7 192 1.6 3.2 0.00 0.00 0.00 89 1006.6
20260505072654 7 177 1.6 3.2 0.00 0.00 0.00 89 1006.6
20260505072151 7 204 3.2 3.2 0.00 0.00 0.00 89 1006.5
20260505071646 7 181 1.6 1.6 0.00 0.00 0.00 90 1006.6
20260505071144 7 201 3.2 3.2 0.00 0.00 0.00 91 1006.5
20260505070641 7 238 0.0 0.0 0.00 0.00 0.00 90 1006.3
20260505070137 7 173 0.0 0.0 0.00 0.00 0.00 89 1006.4
20260505065633 7 183 0.0 0.0 0.00 0.00 0.00 90 1006.5
20260505065130 7 172 0.0 0.0 0.00 0.00 0.00 90 1006.4
20260505064627 7 150 0.0 0.0 0.00 0.00 0.00 91 1006.5
20260505064125 7 156 0.0 0.0 0.00 0.00 0.00 89 1006.6
20260505063622 7 119 0.0 0.0 0.00 0.00 0.00 90 1006.5
20260505063118 7 158 0.0 0.0 0.00 0.00 0.00 89 1006.6
20260505062615 7 134 0.0 0.0 0.00 0.00 0.00 89 1006.6
20260505062112 7 166 0.0 0.0 0.00 0.00 0.00 88 1006.7
20260505061609 7 201 1.6 1.6 0.00 0.00 0.00 88 1007.0
20260505061108 7 192 0.0 0.0 0.00 0.00 0.00 88 1006.9
20260505060604 8 201 0.0 0.0 0.00 0.00 0.00 86 1006.8
20260505055556 8 149 0.0 0.0 0.00 0.00 0.00 84 1006.7
20260505055053 8 125 0.0 0.0 0.00 0.00 0.00 83 1006.6
20260505054550 9 137 0.0 0.0 0.00 0.00 0.00 83 1006.6
20260505054049 9 155 0.0 1.6 0.00 0.00 0.00 82 1006.9
20260505053545 9 184 1.6 3.2 0.00 0.00 0.00 82 1006.7
20260505053042 8 140 0.0 0.0 0.00 0.00 0.00 82 1006.6
20260505052539 9 175 0.0 0.0 0.00 0.00 0.00 82 1006.5
20260505052037 8 134 0.0 0.0 0.00 0.00 0.00 82 1006.5
20260505051533 9 103 1.6 1.6 0.00 0.00 0.00 82 1006.6
20260505051031 9 180 0.0 0.0 0.00 0.00 0.00 81 1006.5
20260505050529 10 165 1.6 1.6 0.00 0.00 0.00 80 1006.5
20260505041457 9 59 4.8 4.8 0.00 0.00 0.00 83 1006.6
20260505040954 8 73 3.2 3.2 0.00 0.00 0.00 85 1006.5
20260505040451 8 73 3.2 3.2 0.00 0.00 0.00 85 1006.6
20260505035948 9 64 4.8 4.8 0.00 0.05 0.05 84 1006.5
20260505035444 10 57 3.2 3.2 0.00 0.05 0.05 80 1006.6
20260505034942 9 88 3.2 4.8 0.00 0.05 0.05 83 1006.3
20260505034438 10 59 3.2 3.2 0.00 0.05 0.05 82 1006.6
20260505033935 11 109 3.2 3.2 0.00 0.05 0.05 77 1006.4
20260505033432 11 111 3.2 3.2 0.00 0.05 0.05 76 1006.4
20260505032930 11 94 4.8 4.8 0.00 0.05 0.05 77 1006.5
20260505032427 11 108 3.2 3.2 0.00 0.05 0.05 77 1006.5
20260505031923 11 94 1.6 3.2 0.00 0.05 0.05 77 1006.4
20260505031420 11 104 4.8 4.8 0.00 0.05 0.05 77 1006.3
20260505030917 11 119 4.8 8.0 0.00 0.05 0.05 78 1006.6
20260505030413 10 106 4.8 8.0 0.00 0.05 0.05 79 1006.8
20260505025909 10 94 3.2 3.2 0.00 0.05 0.05 82 1006.6
20260505025406 10 59 4.8 4.8 0.00 0.05 0.05 80 1006.6
20260505024905 11 90 3.2 3.2 0.00 0.05 0.05 78 1006.5
20260505024402 11 88 3.2 3.2 0.00 0.05 0.05 77 1006.7
20260505023859 11 115 3.2 3.2 0.00 0.05 0.05 78 1006.8
20260505023356 11 100 3.2 3.2 0.00 0.05 0.05 77 1006.8
20260505022853 11 140 6.4 8.0 0.00 0.05 0.05 77 1006.7
20260505022350 10 107 4.8 4.8 0.00 0.05 0.05 80 1006.8
20260505021848 11 63 4.8 4.8 0.00 0.05 0.05 78 1006.7
20260505021344 10 107 1.6 1.6 0.00 0.05 0.05 82 1006.5
20260505020840 10 97 1.6 1.6 0.00 0.05 0.05 85 1006.8
20260505020335 10 70 1.6 3.2 0.00 0.05 0.05 81 1006.8
20260505015832 10 90 1.6 1.6 0.00 0.05 0.05 84 1006.8
20260505015330 9 96 0.0 0.0 0.00 0.05 0.05 84 1006.8
20260505014827 8 87 0.0 0.0 0.00 0.05 0.05 90 1006.8
20260505014324 10 74 1.6 1.6 0.00 0.05 0.05 87 1006.5
20260505013820 10 75 4.8 4.8 0.00 0.05 0.05 82 1006.5
20260505013318 10 67 3.2 3.2 0.00 0.05 0.05 82 1006.7
20260505012816 10 103 3.2 3.2 0.00 0.05 0.05 82 1006.4
20260505012313 10 94 1.6 1.6 0.00 0.05 0.05 84 1006.3
20260505011809 10 85 0.0 0.0 0.00 0.05 0.05 83 1006.2
20260505011306 10 76 0.0 0.0 0.00 0.05 0.05 82 1006.4
20260505010802 10 83 0.0 0.0 0.00 0.05 0.05 83 1006.2
20260505010258 11 69 1.6 3.2 0.00 0.05 0.05 81 1006.2
20260505005754 10 107 0.0 0.0 0.00 0.05 0.05 79 1006.2
20260505005252 10 121 1.6 1.6 0.00 0.05 0.05 84 1006.2
20260505004749 9 73 0.0 1.6 0.00 0.05 0.05 85 1006.0
20260505004245 10 68 1.6 1.6 0.00 0.05 0.05 84 1006.2
20260505003742 10 68 4.8 4.8 0.00 0.05 0.05 82 1006.0
20260505003240 10 96 0.0 0.0 0.00 0.05 0.05 80 1006.0
20260505002736 10 106 0.0 0.0 0.00 0.05 0.05 81 1005.8
20260505002234 10 80 0.0 0.0 0.00 0.05 0.05 82 1005.6
20260505001731 10 84 3.2 3.2 0.00 0.05 0.05 83 1005.5
20260505001229 10 74 1.6 1.6 0.00 0.05 0.05 80 1005.7
20260505000725 9 75 0.0 1.6 0.00 0.05 0.05 84 1005.5
20260505000223 10 71 3.2 3.2 0.00 0.05 0.05 81 1005.5
20260504235719 10 104 0.0 0.0 0.00 0.05 0.05 80 1005.6
20260504235215 11 105 1.6 1.6 0.00 0.05 0.05 79 1005.5
20260504234713 11 94 0.0 0.0 0.00 0.05 0.05 79 1005.6
20260504234210 11 103 0.0 0.0 0.00 0.05 0.05 79 1005.3
20260504233706 11 83 0.0 0.0 0.00 0.05 0.05 80 1005.1
20260504233202 11 100 0.0 0.0 0.00 0.05 0.05 78 1005.2
20260504232700 12 112 0.0 0.0 0.00 0.05 0.05 76 1005.1
20260504232156 12 125 0.0 0.0 0.00 0.05 0.05 75 1005.3
20260504231653 12 140 0.0 0.0 0.00 0.05 0.05 75 1005.2
20260504231150 12 126 0.0 0.0 0.00 0.05 0.05 75 1005.0
20260504230646 12 165 0.0 0.0 0.00 0.05 0.05 73 1004.9
20260504230145 12 189 0.0 0.0 0.00 0.05 0.05 73 1005.0
20260504225643 12 213 3.2 3.2 0.00 0.05 0.05 73 1005.1
20260504225138 12 254 4.8 4.8 0.00 0.05 0.05 72 1004.9
20260504224635 12 263 4.8 4.8 0.00 0.05 0.05 72 1004.6
20260504224132 12 258 4.8 4.8 0.00 0.05 0.05 72 1004.8
20260504223629 12 226 4.8 4.8 0.00 0.05 0.05 72 1004.8
20260504223125 12 201 1.6 3.2 0.00 0.05 0.05 73 1004.6
20260504222622 12 199 4.8 8.0 0.00 0.05 0.05 73 1004.7
20260504222120 12 236 8.0 9.7 0.00 0.05 0.05 73 1004.6
20260504221616 13 278 8.0 9.7 0.00 0.05 0.05 72 1004.7
20260504221114 12 220 6.4 8.0 0.00 0.05 0.05 73 1004.8
20260504220610 12 303 4.8 8.0 0.00 0.05 0.05 73 1005.0
20260504220108 12 223 4.8 4.8 0.00 0.05 0.05 73 1004.6
20260504215603 13 266 6.4 11.3 0.00 0.05 0.05 72 1004.7
20260504215101 12 232 6.4 8.0 0.00 0.05 0.05 71 1004.8
20260504214557 12 267 6.4 9.7 0.00 0.05 0.05 73 1004.6
20260504214053 12 275 8.0 9.7 0.00 0.05 0.05 72 1004.7
20260504213550 13 234 12.9 14.5 0.00 0.05 0.05 71 1004.8
20260504213047 13 244 11.3 16.1 0.00 0.05 0.05 71 1004.5
20260504212543 13 280 8.0 12.9 0.00 0.05 0.05 71 1004.7
20260504212040 12 213 1.6 4.8 0.00 0.05 0.05 74 1004.5
20260504211537 12 217 9.7 14.5 0.00 0.05 0.05 73 1004.6
20260504211034 12 272 16.1 20.9 0.00 0.05 0.05 72 1004.7
20260504210531 12 261 9.7 12.9 0.00 0.05 0.05 73 1004.2
20260504210028 12 290 11.3 12.9 0.00 0.05 0.05 73 1004.2
20260504205526 12 243 6.4 8.0 0.00 0.05 0.05 74 1004.5
20260504205023 12 265 8.0 8.0 0.00 0.05 0.05 74 1004.6
20260504204521 12 233 11.3 14.5 0.00 0.05 0.05 74 1004.4
20260504204020 12 241 11.3 14.5 0.00 0.05 0.05 74 1004.7
20260504203518 12 260 16.1 17.7 0.00 0.05 0.05 74 1004.6
20260504203015 12 301 11.3 17.7 0.00 0.05 0.05 74 1004.2
20260504202510 12 239 17.7 24.1 0.00 0.05 0.05 73 1004.0
20260504202007 12 260 14.5 17.7 0.00 0.05 0.05 73 1004.0
20260504201504 12 265 9.7 11.3 0.00 0.05 0.05 74 1004.2
20260504201002 12 245 14.5 14.5 0.00 0.05 0.05 74 1004.2
20260504200458 12 287 16.1 20.9 0.00 0.05 0.05 72 1004.4